Regional Weather Roundup
Issued by NWS

Home | Current Version | Previous Version | Graphics & Text | Print | Product List | Glossary On
Versions: 1 2 3 4 5 6 7 8 9 10 11 12 13 14 15 16 17 18 19 20 21 22 23 24 25 26 27 28 29 30 31 32 33 34 35 36 37 38 39 40 41 42 43 44 45 46 47 48 49 50
000
ASUS43 KLMK 260810
RWRKY
KENTUCKY REGIONAL WEATHER ROUNDUP
NATIONAL WEATHER SERVICE LOUISVILLE KY
300 AM EST MON JAN 26 2015

NOTE "FAIR" INDICATES FEW OR NO CLOUDS BELOW 12,000 FEET
WITH NO SIGNIFICANT WEATHER AND/OR OBSTRUCTIONS TO VISIBILITY.

KYZ001>023-026-027-061>063-070>075-260900-
WESTERN AND SOUTH CENTRAL KENTUCKY

CITY           SKY/WX    TMP DP  RH WIND       PRES   REMARKS
PADUCAH        CLOUDY    34  30  85 NW13G26   29.94R WCI  25
HENDERSON      CLOUDY    30  25  80 NW15G24   29.91R WCI  19
OWENSBORO      CLOUDY    31  28  88 N15G26    29.89R WCI  20
HOPKINSVILLE   CLOUDY    34  31  89 NW14G25   29.87R WCI  25
BOWLING GREEN  CLOUDY    37  34  89 NW15G22   29.79R FOG     WCI  28
GLASGOW        DRIZZLE   38  38  99 NW12G18   29.75R WCI  31
$$

KYZ024-025-028>034-038-045-046-053-260900-
NORTH CENTRAL KENTUCKY

CITY           SKY/WX    TMP DP  RH WIND       PRES   REMARKS
LOUISVILLE/SDF CLOUDY    29  25  85 NW20      29.80R WCI  16
LOUISVILLE/LOU CLOUDY    28  24  85 N12       29.80R WCI  18
FORT KNOX      CLOUDY    28  27  93 NW13G22   29.78R WCI  18
$$

KYZ035>037-039>044-047>052-055>060-089>105-260900-
NORTHEAST KENTUCKY

CITY           SKY/WX    TMP DP  RH WIND       PRES   REMARKS
LEXINGTON      CLOUDY    32  32 100 NW18      29.70R FOG     WCI  20
COVINGTON      LGT SNOW  25  21  86 N16       29.74R FOG     WCI  12
FRANKFORT      CLOUDY    31  28  89 N15G23    29.72R WCI  20
$$

KYZ054-064>069-076>088-106>120-260900-
SOUTHEAST KENTUCKY

CITY           SKY/WX    TMP DP  RH WIND       PRES   REMARKS
JACKSON        CLOUDY    42  38  85 SW5       29.62S
LONDON         CLOUDY    39  34  82 W9        29.66R WCI  33
SOMERSET       CLOUDY    36  36 100 W6        29.70R WCI  31
MIDDLESBORO    DRIZZLE   41  37  86 CALM      29.66R
MONTICELLO     CLOUDY    39  37  92 W10       29.72S WCI  32
$$



USA.gov is the U.S. government's official web portal to all federal, state and local government web resources and services.